Overview Statistics Trail Chart Weather Telemetry Raw packets
 

This is the latest recevied weather packets stored in our database for station/object WP3OF-2. If no packets are shown the sender has not sent any weather packets the latest 10 day(s).

<< 10 11 12 13 14 15 16 >>
Time Temp. Humidity Pressure Rain* Wind** Luminosity Snow
1788566466 22.22° C 90% 1025.6 hPa 0 mm - 0 W/m² -
1788566165 22.22° C 91% 1025.2 hPa 0 mm - 0 W/m² -
1788565865 22.78° C 90% 1025.6 hPa 0 mm - 0 W/m² -
1788565560 22.22° C 90% 1025.6 hPa 0 mm - 0 W/m² -
1788565256 22.22° C 90% 1025.2 hPa 0 mm - 0 W/m² -
1788564956 22.22° C 89% 1025.6 hPa 0 mm - 0 W/m² -
1788564652 22.22° C 90% 1025.2 hPa 0 mm - 0 W/m² -
1788564348 22.22° C 89% 1025.2 hPa 0 mm - 0 W/m² -
1788564045 22.78° C 89% 1025.2 hPa 0 mm - 0 W/m² -
1788563740 22.78° C 88% 1025.2 hPa 0 mm - 0 W/m² -
1788563435 22.78° C 87% 1025.2 hPa 0 mm - 0 W/m² -
1788563134 22.78° C 88% 1025.2 hPa 0 mm - 0 W/m² -
1788562830 22.78° C 87% 1025.2 hPa 0 mm - 0 W/m² -
1788562527 22.78° C 87% 1025.2 hPa 0 mm - 0 W/m² -
1788562227 22.22° C 91% 1025.6 hPa 0 mm - 0 W/m² -
1788561922 22.78° C 95% 1025.6 hPa 0 mm - 0 W/m² -
1788561617 22.78° C 94% 1025.2 hPa 0 mm - 1 W/m² -
1788561316 22.78° C 89% 1025.2 hPa 0 mm - 5 W/m² -
1788561013 23.33° C 90% 1025.2 hPa 0 mm - 8 W/m² -
1788560707 23.33° C 82% 1025.2 hPa 0 mm - 12 W/m² -
1788560403 23.33° C 82% 1025.2 hPa 0 mm - 17 W/m² -
1788560097 23.89° C 80% 1025.2 hPa 0 mm - 23 W/m² -
1788559792 23.89° C 80% 1025.2 hPa 0 mm - 30 W/m² -
1788559491 23.89° C 80% 1025.2 hPa 0 mm - 42 W/m² -
1788559187 23.89° C 78% 1025.2 hPa 0 mm - 62 W/m² -

* Rain latest hour (hover to see other rain measurements)
** Current wind speed in m/s (hover to see current wind gust speed)